Weather History for PAKP - October, 2012

Change the Weather History Date:

Monday, October 29, 2012

  Actual Average Record
Temperature  
Mean Temperature 14 °F -  
Max Temperature 19 °F 7 °F 30 °F (1996)
Min Temperature 8 °F 0 °F -16 °F (1999)
Degree Days  
Heating Degree Days 52    
Moisture  
Dew Point 7 °F    
Average Humidity 69    
Maximum Humidity 79    
Minimum Humidity 53    
Precipitation  
Precipitation 0.00 in - - ()
Sea Level Pressure  
Sea Level Pressure 29.89 in    
Wind  
Wind Speed 7 mph (NNE)    
Max Wind Speed 14 mph    
Max Gust Speed 22 mph    
Visibility 6 miles    
Events      
Averages and records for this station are not official NWS values.
T = Trace of Precipitation, MM = Missing Value Source: NWS Daily Summary

Daily Weather History Graph

Daily Weather History Graph

Search for Another Location

Airport or City:

Trip Planner

Search our weather history database for the weather conditions in past years. The results will help you decide how hot, cold, wet, or windy it might be!

Date:

Astronomy

Oct. 29, 2012 Rise Set
Actual Time 10:09 AM AKDT 5:30 PM AKDT
Civil Twilight 9:05 AM AKDT 6:34 PM AKDT
Nautical Twilight 7:58 AM AKDT 7:41 PM AKDT
Astronomical Twilight 6:53 AM AKDT 8:45 PM AKDT
Moon 4:56 PM AKDT (10/29) 10:35 AM AKDT (10/29)
Length of Visible Light 9h 28m
Length of Day
7h 20m
Full, 100% of the Moon is Illuminated
Oct 29
Full
Nov 6
Last Quarter
Nov 13
New
Nov 20
First Quarter
Nov 28
Full

Hourly Weather History & Observations

Time (AKDT) Temp. Windchill Dew Point Humidity Pressure Visibility Wind Dir Wind Speed Gust Speed Precip Events Conditions
12:16 AM 19.4 °F 10.4 °F 12.2 °F 74% 29.92 in 4.0 mi NNE 6.9 mph - N/A   Overcast
12:36 AM 19.4 °F 12.8 °F 12.2 °F 74% 29.92 in 5.0 mi North 4.6 mph - N/A   Overcast
12:56 AM 19.4 °F 10.4 °F 12.2 °F 74% 29.92 in 4.0 mi NE 6.9 mph - N/A   Overcast
1:16 AM 19.4 °F 9.5 °F 12.2 °F 74% 29.91 in 9.0 mi NE 8.1 mph - N/A   Overcast
1:36 AM 17.6 °F 12.3 °F 10.4 °F 73% 29.91 in 7.0 mi North 3.5 mph - N/A   Overcast
1:56 AM 17.6 °F 6.4 °F 10.4 °F 73% 29.90 in 9.0 mi NE 9.2 mph - N/A   Overcast
2:16 AM 19.4 °F 11.5 °F 12.2 °F 74% 29.90 in 5.0 mi NE 5.8 mph - N/A   Overcast
2:36 AM 19.4 °F 11.5 °F 12.2 °F 74% 29.90 in 5.0 mi NE 5.8 mph - N/A   Overcast
2:56 AM 19.4 °F 7.9 °F 12.2 °F 74% 29.89 in 5.0 mi ENE 10.4 mph - N/A   Overcast
3:16 AM 17.6 °F 5.7 °F 12.2 °F 79% 29.89 in 5.0 mi NE 10.4 mph - N/A   Overcast
3:36 AM 17.6 °F 7.3 °F 10.4 °F 73% 29.88 in 5.0 mi NE 8.1 mph - N/A   Overcast
3:56 AM 17.6 °F 7.3 °F 10.4 °F 73% 29.88 in 6.0 mi ENE 8.1 mph - N/A   Overcast
4:16 AM 17.6 °F 8.2 °F 10.4 °F 73% 29.87 in 7.0 mi ENE 6.9 mph - N/A   Overcast
4:36 AM 17.6 °F 8.2 °F 10.4 °F 73% 29.87 in 5.0 mi ENE 6.9 mph - N/A   Overcast
4:56 AM 17.6 °F 7.3 °F 10.4 °F 73% 29.86 in 6.0 mi ENE 8.1 mph - N/A   Overcast
5:16 AM 17.6 °F 7.3 °F 10.4 °F 73% 29.86 in 7.0 mi NE 8.1 mph - N/A   Overcast
5:36 AM 17.6 °F 8.2 °F 10.4 °F 73% 29.85 in 6.0 mi NE 6.9 mph - N/A   Overcast
5:56 AM 17.6 °F 9.3 °F 10.4 °F 73% 29.85 in 5.0 mi ENE 5.8 mph - N/A   Overcast
6:16 AM 17.6 °F 9.3 °F 10.4 °F 73% 29.85 in 4.0 mi NE 5.8 mph - N/A   Overcast
6:36 AM 17.6 °F 10.7 °F 10.4 °F 73% 29.85 in 4.0 mi North 4.6 mph - N/A   Mostly Cloudy
6:56 AM 17.6 °F 6.4 °F 10.4 °F 73% 29.85 in 5.0 mi NNE 9.2 mph - N/A   Mostly Cloudy
7:16 AM 17.6 °F 3.7 °F 6.8 °F 63% 29.85 in 5.0 mi North 13.8 mph 21.9 mph N/A   Mostly Cloudy
7:36 AM 17.6 °F 5.7 °F 5.0 °F 58% 29.85 in 10.0 mi North 10.4 mph - N/A   Overcast
7:56 AM 17.6 °F 5.7 °F 3.2 °F 53% 29.85 in 5.0 mi NNW 10.4 mph - N/A   Overcast
8:16 AM 17.6 °F 7.3 °F 3.2 °F 53% 29.85 in 10.0 mi NE 8.1 mph - N/A   Overcast
8:36 AM 15.8 °F 4.2 °F 5.0 °F 62% 29.85 in 10.0 mi NE 9.2 mph 18.4 mph N/A   Overcast
8:56 AM 15.8 °F 5.1 °F 6.8 °F 68% 29.84 in 10.0 mi NE 8.1 mph - N/A   Overcast
9:36 AM 15.8 °F 4.2 °F 6.8 °F 68% 29.84 in 9.0 mi NE 9.2 mph - N/A   Overcast
9:56 AM 15.8 °F 4.2 °F 6.8 °F 68% 29.84 in 10.0 mi NE 9.2 mph - N/A   Overcast
10:16 AM 15.8 °F 5.1 °F 3.2 °F 58% 29.84 in 10.0 mi NE 8.1 mph - N/A   Mostly Cloudy
10:36 AM 15.8 °F 6.1 °F 3.2 °F 58% 29.84 in 10.0 mi NE 6.9 mph - N/A   Mostly Cloudy
10:56 AM 12.2 °F 1.7 °F 3.2 °F 67% 29.84 in 10.0 mi NNE 6.9 mph - N/A   Overcast
11:16 AM 14.0 °F 6.5 °F 3.2 °F 62% 29.85 in 10.0 mi NE 4.6 mph - N/A   Overcast
11:36 AM 14.0 °F - 3.2 °F 62% 29.84 in 10.0 mi Calm Calm - N/A   Overcast
11:56 AM 14.0 °F 5.1 °F 3.2 °F 62% 29.85 in 10.0 mi NNE 5.8 mph - N/A   Overcast
12:16 PM 14.0 °F 8.2 °F 6.8 °F 73% 29.85 in 9.0 mi NNE 3.5 mph - N/A   Overcast
12:36 PM 15.8 °F 10.2 °F 6.8 °F 68% 29.85 in 4.0 mi NE 3.5 mph - N/A   Overcast
12:56 PM 15.8 °F 8.6 °F 6.8 °F 68% 29.85 in 1.5 mi NNE 4.6 mph - N/A   Overcast
1:16 PM 15.8 °F 5.1 °F 8.6 °F 73% 29.85 in 1.5 mi ENE 8.1 mph - N/A   Overcast
1:36 PM 15.8 °F 6.1 °F 8.6 °F 73% 29.85 in 1.5 mi NE 6.9 mph - N/A   Overcast
1:56 PM 15.8 °F 10.2 °F 8.6 °F 73% 29.86 in 1.8 mi North 3.5 mph - N/A   Overcast
2:16 PM 15.8 °F 8.6 °F 8.6 °F 73% 29.87 in 1.8 mi NNW 4.6 mph - N/A   Overcast
2:36 PM 15.8 °F 5.1 °F 6.8 °F 68% 29.87 in 1.0 mi NE 8.1 mph 16.1 mph N/A   Overcast
2:56 PM 15.8 °F 7.2 °F 8.6 °F 73% 29.87 in 1.8 mi NE 5.8 mph - N/A   Overcast
3:16 PM 15.8 °F 4.2 °F 6.8 °F 68% 29.87 in 1.8 mi ENE 9.2 mph - N/A   Overcast
3:36 PM 15.8 °F 5.1 °F 6.8 °F 68% 29.87 in 2.5 mi NNE 8.1 mph - N/A   Overcast
3:56 PM 15.8 °F 5.1 °F 6.8 °F 68% 29.88 in 1.2 mi NE 8.1 mph - N/A   Overcast
4:16 PM 15.8 °F 8.6 °F 6.8 °F 68% 29.88 in 1.2 mi NNW 4.6 mph - N/A   Overcast
4:36 PM 15.8 °F 10.2 °F 6.8 °F 68% 29.89 in 2.0 mi North 3.5 mph - N/A   Overcast
4:56 PM 15.8 °F 10.2 °F 6.8 °F 68% 29.89 in 1.5 mi NNW 3.5 mph - N/A   Overcast
5:16 PM 15.8 °F 6.1 °F 6.8 °F 68% 29.89 in 2.0 mi NW 6.9 mph - N/A   Overcast
5:36 PM 15.8 °F 8.6 °F 5.0 °F 62% 29.90 in 1.2 mi NNW 4.6 mph - N/A   Overcast
6:16 PM 14.0 °F - 5.0 °F 67% 29.91 in 3.0 mi Calm Calm - N/A   Overcast
6:36 PM 14.0 °F 6.5 °F 5.0 °F 67% 29.91 in 1.8 mi East 4.6 mph - N/A   Overcast
6:56 PM 14.0 °F 6.5 °F 3.2 °F 62% 29.92 in 3.0 mi NNE 4.6 mph - N/A   Overcast
7:16 PM 12.2 °F 4.3 °F 3.2 °F 67% 29.92 in 3.0 mi NNE 4.6 mph - N/A   Overcast
7:36 PM 14.0 °F 8.2 °F 3.2 °F 62% 29.92 in 3.0 mi NNE 3.5 mph - N/A   Overcast
7:56 PM 12.2 °F - 3.2 °F 67% 29.93 in 4.0 mi Calm Calm - N/A   Mostly Cloudy
8:16 PM 12.2 °F 0.7 °F 1.4 °F 62% 29.94 in 7.0 mi North 8.1 mph - N/A   Overcast
8:36 PM 12.2 °F 2.9 °F 1.4 °F 62% 29.94 in 9.0 mi North 5.8 mph - N/A   Overcast
8:56 PM 12.2 °F 1.7 °F 3.2 °F 67% 29.94 in 5.0 mi NE 6.9 mph - N/A   Overcast
9:16 PM 10.4 °F -3.3 °F 3.2 °F 73% 29.94 in 6.0 mi NE 10.4 mph - N/A   Mostly Cloudy
9:36 PM 10.4 °F 2.2 °F 3.2 °F 73% 29.95 in 7.0 mi NNE 4.6 mph - N/A   Mostly Cloudy
9:56 PM 10.4 °F -2.4 °F 3.2 °F 73% 29.95 in 10.0 mi NE 9.2 mph - N/A   Overcast
10:16 PM 10.4 °F -1.5 °F 1.4 °F 67% 29.95 in 8.0 mi NE 8.1 mph - N/A   Overcast
10:36 PM 10.4 °F 2.2 °F 1.4 °F 67% 29.95 in 10.0 mi NE 4.6 mph - N/A   Overcast
10:56 PM 10.4 °F 4.0 °F 1.4 °F 67% 29.96 in 10.0 mi NNW 3.5 mph - N/A   Overcast
11:16 PM 10.4 °F 2.2 °F 1.4 °F 67% 29.96 in 10.0 mi ENE 4.6 mph - N/A   Overcast
11:36 PM 8.6 °F 2.0 °F 1.4 °F 73% 29.96 in 10.0 mi NNE 3.5 mph - N/A   Overcast
11:56 PM 10.4 °F 4.0 °F 1.4 °F 67% 29.97 in 10.0 mi NNW 3.5 mph - N/A   Overcast